Orbital Elements at Epoch 2459200.5 (2020-Dec-17.0) TDB
Reference: JPL 27 (heliocentric ecliptic J2000)
Element | Value | Uncertainty (1-sigma) | Units |
e | .1218783923343542 | 4.1249e-08 | |
a | 2.552905084866943 | 1.0223e-08 | au |
q | 2.241761117341162 | 1.0563e-07 | au |
i | 5.700444810478048 | 4.5331e-06 | deg |
node | 184.9684345753078 | 3.9824e-05 | deg |
peri | 198.9074556253002 | 4.7383e-05 | deg |
M | 163.6479509749298 | 2.4822e-05 | deg |
tp | 2458523.235205822298 (2019-Feb-08.73520582) | 0.00010106 | TDB |
period | 1489.877046742395 4.08 | 8.9491e-06 2.45e-08 | d yr |
n | .2416306773684024 | 1.4514e-09 | deg/d |
Q | 2.864049052392724 | 1.1469e-08 | au |
|
| | Orbit Determination Parameters
Additional Information
|